N123AB KBHM-

Flight info

Callsign N123AB
Flight time N/A
Altitude
Route VFR
Aircraft R22/L-DOV/C

Departure

Time 2026-04-17 00:51
Airport Birmingham-Shuttlesworth International Airport (KBHM)

Arrival

Time N/A
Airport -
Time Latitude Longitude Altitude Speed Heading
2026-04-17 00:50 33.56417 -86.74197 736 ft 24 kts 102°
2026-04-17 00:50 33.56306 -86.73872 993 ft 57 kts 91°
2026-04-17 00:51 33.56201 -86.73322 1204 ft 79 kts 94°
2026-04-17 00:51 33.56160 -86.72562 1266 ft 102 kts 83°
2026-04-17 00:51 33.56284 -86.71724 1437 ft 97 kts 68°
2026-04-17 00:51 33.56524 -86.70946 1541 ft 104 kts 64°
2026-04-17 00:52 33.56775 -86.70120 1630 ft 109 kts 66°
2026-04-17 00:52 33.57026 -86.69259 1644 ft 113 kts 68°
2026-04-17 00:52 33.57289 -86.68368 1636 ft 114 kts 67°
2026-04-17 00:52 33.57595 -86.67470 1569 ft 118 kts 64°
2026-04-17 00:53 33.58033 -86.66669 1509 ft 114 kts 28°
2026-04-17 00:53 33.58768 -86.66358 1391 ft 115 kts
2026-04-17 00:53 33.59444 -86.66402 1435 ft 77 kts 287°
2026-04-17 00:53 33.59612 -86.66660 1338 ft 22 kts 218°
2026-04-17 00:54 33.59531 -86.66788 1161 ft 14 kts 193°
2026-04-17 00:54 33.59544 -86.66814 1124 ft 16 kts 269°
2026-04-17 00:54 33.59523 -86.67048 1375 ft 47 kts 230°
2026-04-17 00:54 33.59127 -86.67058 1514 ft 79 kts 171°
2026-04-17 00:55 33.58517 -86.66932 1499 ft 95 kts 184°
2026-04-17 00:55 33.58034 -86.67348 1494 ft 88 kts 250°
2026-04-17 00:55 33.57857 -86.68035 1544 ft 89 kts 248°
2026-04-17 00:55 33.57507 -86.68648 1522 ft 92 kts 227°
2026-04-17 00:56 33.57093 -86.69222 1514 ft 90 kts 235°
2026-04-17 00:56 33.56784 -86.69878 1523 ft 88 kts 253°
2026-04-17 00:56 33.56692 -86.70561 1663 ft 84 kts 268°
2026-04-17 00:56 33.56681 -86.71287 1660 ft 90 kts 267°
2026-04-17 00:57 33.56664 -86.72055 1610 ft 93 kts 265°
2026-04-17 00:57 33.56652 -86.72854 1534 ft 95 kts 266°
2026-04-17 00:57 33.56649 -86.73643 1494 ft 92 kts 258°
2026-04-17 00:57 33.56261 -86.74250 1489 ft 90 kts 233°
2026-04-17 00:58 33.56196 -86.74960 1436 ft 98 kts 295°
2026-04-17 00:58 33.56463 -86.75732 1175 ft 102 kts 264°
2026-04-17 00:58 33.56178 -86.76446 856 ft 98 kts 224°
2026-04-17 00:58 33.55802 -86.77009 681 ft 66 kts 238°
2026-04-17 00:59 33.55668 -86.77298 615 ft 15 kts 228°
2026-04-17 00:59 33.55662 -86.77314 606 ft 0 kts 202°
2026-04-17 01:05 33.55659 -86.77316 608 ft 2 kts 106°
2026-04-17 01:05 33.55661 -86.77224 651 ft 20 kts 94°
2026-04-17 01:05 33.55709 -86.77103 628 ft 7 kts 76°
2026-04-17 01:06 33.55721 -86.77085 608 ft 0 kts 99°
2026-04-17 01:08 33.55727 -86.76989 669 ft 36 kts 78°
2026-04-17 01:08 33.55814 -86.76481 775 ft 81 kts 74°
2026-04-17 01:08 33.55971 -86.75756 814 ft 96 kts 78°
2026-04-17 01:08 33.56134 -86.74965 851 ft 97 kts 77°
2026-04-17 01:09 33.56105 -86.74437 729 ft 35 kts 241°
2026-04-17 01:09 33.56125 -86.74511 624 ft 0 kts 47°